Regional Weather Roundup
Issued by NWS

Home | Current Version | Previous Version | Graphics & Text | Print | Product List | Glossary On
Versions: 1 2 3 4 5 6 7 8 9 10 11 12 13 14 15 16 17 18 19 20 21 22 23 24 25 26 27 28 29 30 31 32 33 34 35 36 37 38 39 40 41 42 43 44 45 46 47 48 49 50
089
ASUS43 KOAX 211102
RWRNE

WEATHER ROUNDUP FOR NEBRASKA
NATIONAL WEATHER SERVICE OMAHA NE
500 AM CST WED FEB 21 2018

NOTES: SATELLITE DATA IS BEING USED TO AUGMENT CLOUD COVER ABOVE
       12000 FEET.
       "FAIR" INDICATES FEW OR NO CLOUDS BELOW 12,000 FEET WITH NO
       SIGNIFICANT WEATHER AND/OR OBSTRUCTIONS TO VISIBILITY.


NEZ001>004-019>022-054>056-211200-
NEBRASKA PANHANDLE

CITY           SKY/WX    TMP DP  RH WIND       PRES   REMARKS
SCOTTSBLUFF    CLEAR    -10 -14  82 CALM      30.26R
ALLIANCE       PTCLDY   -21 -24  86 NW7       30.24F WCI -38
CHADRON        PTCLDY   -16 -23  70 W6        30.30F WCI -31
GORDON         FAIR     -15 -20  77 CALM      30.27F
KIMBALL        CLEAR     -6 -11  77 W10       30.20S WCI -23
SIDNEY         CLEAR     -7 -12  79 W8        30.24R WCI -23
$$

NEZ057>060-069>072-079>082-211200-
SOUTHWEST NEBRASKA

CITY           SKY/WX    TMP DP  RH WIND       PRES   REMARKS
NORTH PLATTE   CLEAR     -5 -10  79 CALM      30.39S
IMPERIAL       CLEAR     -1  -5  82 CALM      30.33F
LEXINGTON      CLEAR      5  -1  78 W5        30.42F WCI  -4
MCCOOK         CLEAR      2  -2  83 W3        30.40F
OGALLALA       CLEAR     -3  -8  79 W3        30.34R
$$

NEZ005>010-023>029-035>040-094-211200-
NORTH CENTRAL NEBRASKA

CITY           SKY/WX    TMP DP  RH WIND       PRES   REMARKS
VALENTINE      PTCLDY   -10 -16  74 S6        30.38F WCI -23
AINSWORTH      CLEAR     -4 -10  77 W3        30.39R
BROKEN BOW     CLEAR     -1  -8  72 NW6       30.41R WCI -13
O`NEILL        CLEAR     -4 -10  76 W3        30.45S
ORD            CLEAR     -2  -8  76 CALM      30.46R
THEDFORD       CLEAR     -8 -13  76 CALM      30.36F
$$

NEZ041-046>049-061>064-073>077-083>087-211200-
SOUTH CENTRAL NEBRASKA

CITY           SKY/WX    TMP DP  RH WIND       PRES   REMARKS
GRAND ISLAND   CLEAR      4  -1  80 NW5       30.49S WCI  -5
AURORA         CLEAR      3  -2  79 CALM      30.50R
HASTINGS       CLOUDY     4  -2  76 CALM      30.49R
HEBRON         CLOUDY     9   2  75 CALM      30.55R
HOLDREGE       CLOUDY     4   0  82 CALM      30.44S
KEARNEY        CLEAR      3  -2  79 N3        30.47R
YORK           PTCLDY     3   1  92 CALM      30.52R
$$

NEZ011>018-030>034-042>045-211200-
NORTHEAST NEBRASKA

CITY           SKY/WX    TMP DP  RH WIND       PRES   REMARKS
NORFOLK        CLEAR      0  -4  83 W5        30.51R WCI -10
ALBION         PTCLDY     0  -5  78 CALM      30.50R
BLAIR          CLEAR      8   3  79 NW7       30.53R WCI  -3
COLUMBUS       CLEAR      4   0  83 NW3       30.54S
FREMONT        CLEAR      7   2  78 N3        30.55S
TEKAMAH        CLEAR      7   2  80 N7        30.57R WCI  -5
WAYNE          PTCLDY     3  -2  79 NW5       30.53R WCI  -7
$$

NEZ050>053-065>068-078-088>093-211200-
SOUTHEAST NEBRASKA

CITY           SKY/WX    TMP DP  RH WIND       PRES   REMARKS
LINCOLN        CLEAR      7   1  76 CALM      30.58R
OMAHA EPPLEY   CLEAR      9   3  77 N10       30.57R WCI  -5
BEATRICE       CLOUDY     8   5  85 N6        30.55S WCI  -2
FALLS CITY     CLOUDY    12   5  73 N7        30.56R WCI   1
NEBRASKA CITY  CLEAR     10   6  86 N7        30.56R WCI  -1
PLATTSMOUTH    CLEAR     10   5  82 NW9       30.55R WCI  -4
$$

NEZ044-045-051>053-067-211200-
OMAHA AREA

CITY           SKY/WX    TMP DP  RH WIND       PRES   REMARKS
OMAHA EPPLEY   CLEAR      9   3  77 N10       30.57R WCI  -5
BLAIR          CLEAR      8   3  79 NW7       30.53R WCI  -3
FREMONT        CLEAR      7   2  78 N3        30.55S
MILLARD        CLEAR     11   4  72 N3        30.57R
OFFUTT AFB     CLEAR      9   2  74 N3        30.56R
PLATTSMOUTH    CLEAR     10   5  82 NW9       30.55R WCI  -4
WAHOO          FAIR       8   2  76 N6        30.55R WCI  -2
$$




USA.gov is the U.S. government's official web portal to all federal, state and local government web resources and services.